Flag for United Kingdom Weather for the Past 2 Weeks in Kingston upon Hull, England, United Kingdom

Now
39 °F

Passing clouds.


Feels Like: 30 °F
Forecast: 40 / 47 °F
Wind: 18 mph from Southwest

Location: Humberside

Current Time: Feb 7, 2016 at 8:39:43 AM

Latest Report: Feb 7, 2016 at 8:20 AM


Visibility: N/A

Pressure: 29.15 "Hg

Humidity: 93%

Dew point: 37 °F

Location of Kingston upon HullLocation

Historic Weather in Kingston upon Hull — Graph

°F

Kingston upon Hull Temperature Yesterday

Maximum temperature yesterday: 54 °F (at 2:50 PM)
Minimum temperature yesterday: 37 °F (at 3:20 AM)
Average temperature yesterday: 47 °F

High & Low Weather Summary for the Past Weeks

 TemperatureHumidityPressure
High59 °F (Jan 27, 10:50 AM)100% (Jan 24, 1:20 AM)30.33 "Hg (Jan 24, 1:20 AM)
Low34 °F (Jan 30, 4:50 PM)51% (Feb 1, 2:50 PM)29.00 "Hg (Feb 6, 8:20 PM)
Average48 °F83%29.82 "Hg
* Reported Jan 23 7:20 AM — Feb 7 7:20 AM, Kingston upon Hull, Weather by CustomWeather, © 2016

Note: Actual official high and low records may vary slightly from our data, if they occured in-between our weather recording intervals... More about our weather records

Advertising

Kingston upon Hull Weather History for the Previous 24 Hours

 ConditionsComfort  
Time TempWeatherWind HumidityBarometerVisibility
7:20 AM
Sun, Feb 7
39 °FPassing clouds.18 mph87%29.12 "HgN/A
6:50 AM39 °FPassing clouds.20 mph87%29.12 "HgN/A
6:20 AM39 °FClear.18 mph93%29.12 "Hg10 mi
5:50 AM41 °FClear.17 mph87%29.12 "Hg10 mi
5:20 AM41 °FQuite cool.18 mph87%29.09 "HgN/A
4:50 AM41 °FQuite cool.16 mph87%29.09 "HgN/A
4:20 AM41 °FQuite cool.20 mph87%29.09 "HgN/A
3:20 AM41 °FQuite cool.18 mph93%29.06 "HgN/A
2:50 AM41 °FQuite cool.18 mph93%29.06 "HgN/A
2:20 AM43 °FQuite cool.17 mph87%29.06 "HgN/A
1:20 AM43 °FPassing clouds.14 mph93%29.03 "HgN/A
12:50 AM43 °FPassing clouds.13 mph93%29.03 "HgN/A
12:20 AM45 °FPassing clouds.16 mph87%29.03 "HgN/A
11:50 PM
Sat, Feb 6
45 °FLight rain. Passing clouds.16 mph87%29.03 "HgN/A
11:20 PM45 °FLight rain. Partly cloudy.20 mph87%29.03 "HgN/A
10:50 PM45 °FLight rain. Partly cloudy.15 mph93%29.03 "Hg4 mi
10:20 PM48 °FHeavy rain. Partly cloudy.22 mph87%29.00 "Hg1 mi
9:20 PM50 °FLight rain. Passing clouds.31 mph88%29.00 "HgN/A
8:50 PM52 °FLight rain. Passing clouds.32 mph77%29.00 "HgN/A
8:20 PM52 °FPassing clouds.33 mph77%29.00 "HgN/A
7:50 PM52 °FPassing clouds.32 mph77%29.03 "HgN/A
7:20 PM52 °FPassing clouds.33 mph82%29.03 "HgN/A
6:50 PM52 °FPassing clouds.31 mph77%29.03 "HgN/A
6:20 PM54 °FPassing clouds.36 mph77%29.06 "HgN/A
5:50 PM54 °FPassing clouds.32 mph77%29.06 "HgN/A
5:20 PM52 °FPartly cloudy.30 mph82%29.09 "HgN/A
4:50 PM52 °FPartly cloudy.29 mph82%29.09 "HgN/A
4:20 PM52 °FBroken clouds.29 mph82%29.12 "HgN/A
3:50 PM54 °FBroken clouds.30 mph82%29.12 "HgN/A
3:20 PM54 °FLight rain. Broken clouds.32 mph82%29.15 "HgN/A
2:50 PM54 °FLight rain. Broken clouds.30 mph82%29.15 "HgN/A
2:20 PM52 °FBroken clouds.30 mph88%29.18 "HgN/A
1:50 PM52 °FBroken clouds.28 mph88%29.18 "HgN/A
1:20 PM52 °FBroken clouds.26 mph94%29.21 "HgN/A
12:50 PM50 °FLight rain. Broken clouds.26 mph94%29.24 "Hg4 mi
12:20 PM50 °FRain. Broken clouds.24 mph94%29.27 "Hg4 mi
11:50 AM50 °FRain. Partly sunny.26 mph94%29.30 "Hg2 mi
11:20 AM50 °FDrizzle. Partly sunny.25 mph94%29.33 "Hg2 mi
10:50 AM50 °FLight rain. Broken clouds.18 mph94%29.36 "Hg1 mi
10:20 AM50 °FLight rain. Broken clouds.20 mph94%29.39 "Hg4 mi
9:50 AM48 °FLight rain. Partly sunny.21 mph100%29.42 "Hg3 mi
9:20 AM45 °FLight rain. Partly sunny.5 mph100%29.42 "Hg3 mi
8:50 AM45 °FLight rain. Broken clouds.No wind93%29.45 "Hg4 mi
8:20 AM45 °FLight rain. Broken clouds.7 mph93%29.47 "Hg4 mi
Weather by CustomWeather, © 2016

See weather overviewHow to use our weather pages